• Join FlightAware (Why Join?)
  • Login
  • US Flag 
12:49PM EDT


 

Airport Tracker/Info


-or-


 

Live Flight TrackerFlight Track Log ✈ VOZ1555 ✈ 27-Sep-2013 ✈ YSSY / SYD - YHBA / HVB

Flight Track Log - Related Links

Times and Time Zones

All times are in EDT time to prevent confusion due to time zone crossing. See the VOZ1555 flight status page for this flight to view local times or setup timezone preferences in your user account.

Time Position Orientation Groundspeed Altitude Reporting Facility
EDT Latitude Longitude Course Direction KTS MPH feet Rate Location/Type
08:24PM -33.9490 151.1880 347° North 162 186 100  Level FlightAware
08:24PM -33.9293 151.1921 10° North 180 207 1,200 3,360 Climbing FlightAware ADS-B
08:25PM -33.9168 151.2066 44° Northeast 201 231 1,900 2,400 Climbing FlightAware ADS-B
08:25PM -33.8999 151.2259 44° Northeast 214 246 3,200 2,160 Climbing FlightAware ADS-B
08:26PM -33.8803 151.2481 43° Northeast 248 285 3,700 1,020 Climbing FlightAware ADS-B
08:26PM -33.8632 151.2665 42° Northeast 289 333 3,900 900 Climbing FlightAware ADS-B
08:26PM -33.8270 151.3053 42° Northeast 308 354 4,500 1,020 Climbing FlightAware ADS-B
08:27PM -33.8059 151.3280 42° Northeast 313 360 4,800 540 Climbing FlightAware ADS-B
08:27PM -33.7836 151.3519 42° Northeast 313 360 4,900 1,680 Climbing FlightAware ADS-B
08:28PM -33.7530 151.3934 48° Northeast 317 365 6,400 2,580 Climbing FlightAware ADS-B
08:28PM -33.7354 151.4256 57° Northeast 327 376 7,300 2,700 Climbing FlightAware ADS-B
08:28PM -33.7157 151.4608 56° Northeast 335 386 8,200 2,760 Climbing FlightAware ADS-B
08:29PM -33.6901 151.5063 56° Northeast 345 397 9,600 2,580 Climbing FlightAware ADS-B
08:29PM -33.6599 151.5602 56° Northeast 359 413 11,000 2,460 Climbing FlightAware ADS-B
08:30PM -33.6260 151.6210 56° Northeast 362 417 12,600 2,880 Climbing FlightAware
08:30PM -33.6088 151.6512 56° Northeast 363 418 13,600 3,120 Climbing FlightAware ADS-B
08:31PM -33.5905 151.6813 54° Northeast 362 417 14,500 2,340 Climbing FlightAware ADS-B
08:31PM -33.5779 151.6937 39° Northeast 358 412 14,900 2,160 Climbing FlightAware ADS-B
08:32PM -33.5024 151.7232 18° North 358 412 16,500 2,280 Climbing FlightAware ADS-B
08:32PM -33.4537 151.7388 15° North 366 421 17,700 2,280 Climbing FlightAware ADS-B
08:33PM -33.3933 151.7584 15° North 369 425 19,100 2,220 Climbing FlightAware ADS-B
08:33PM -33.3318 151.7783 15° North 372 428 20,500 1,860 Climbing FlightAware ADS-B
08:34PM -33.2660 151.8000 15° North 384 442 21,600 1,620 Climbing FlightAware
08:35PM -33.2050 151.8190 15° North 392 451 22,600 1,740 Climbing FlightAware
08:35PM -33.1390 151.8400 15° North 401 461 23,700 1,920 Climbing FlightAware
08:36PM -33.0732 151.8611 15° North 403 464 24,900 1,500 Climbing Aus ATC (RADAR)
08:36PM -33.0770 151.8600 15° North 406 467 24,600 1,140 Descending FlightAware
08:36PM -33.0140 151.8810 16° North 411 473 25,600 1,620 Climbing FlightAware
08:37PM -32.9460 151.9020 15° North 417 480 26,500 1,620 Climbing FlightAware
08:38PM -32.8781 151.9238 15° North 419 482 27,500 1,320 Climbing Aus ATC (RADAR)
08:38PM -32.8780 151.9240 15° North 422 486 27,300 1,020 Descending FlightAware
08:38PM -32.8180 151.9430 15° North 424 488 28,100 1,380 Climbing FlightAware
08:39PM -32.7510 151.9650 15° North 427 491 28,900 1,560 Climbing FlightAware
08:39PM -32.6877 151.9843 15° North 427 491 29,800 1,140 Climbing Aus ATC (RADAR)
08:39PM -32.6930 151.9830 15° North 428 493 29,500 1,020 Descending FlightAware
08:40PM -32.6204 152.0058 15° North 429 494 30,400 1,080 Climbing Aus ATC (RADAR)
08:40PM -32.6250 152.0050 15° North 431 496 30,200 720 Descending FlightAware
08:40PM -32.5460 152.0300 15° North 436 502 30,900 900 Climbing FlightAware
08:41PM -32.4820 152.0500 15° North 443 510 31,300 720 Climbing FlightAware
08:42PM -32.4160 152.0710 15° North 445 512 31,800 960 Climbing FlightAware
08:42PM -32.3436 152.0935 15° North 447 514 32,400 840 Climbing Aus ATC (RADAR)
08:42PM -32.3400 152.0950 15° North 451 519 32,300 540 Descending FlightAware
08:43PM -32.2680 152.1180 15° North 453 521 32,800 960 Climbing FlightAware
08:43PM -32.2080 152.1370 15° North 450 518 33,400 960 Climbing FlightAware
08:44PM -32.1310 152.1610 15° North 450 518 33,900 840 Climbing FlightAware
08:45PM -32.0600 152.1830 15° North 448 516 34,500 840 Climbing FlightAware
08:45PM -31.9830 152.2080 15° North 448 516 35,000 780 Climbing FlightAware
08:46PM -31.9200 152.2270 15° North 449 517 35,400 1,140 Climbing FlightAware
08:46PM -31.9116 152.2294 15° North 447 514 35,600 1,020 Climbing Aus ATC (RADAR)
08:46PM -31.8550 152.2470 15° North 442 509 36,000 480 Climbing FlightAware
08:47PM -31.7850 152.2690 15° North 449 517 36,200 240 Climbing FlightAware
08:47PM -31.7100 152.2920 15° North 454 522 36,300 420 Climbing FlightAware
08:48PM -31.6416 152.3128 15° North 455 524 36,700 360 Climbing Aus ATC (RADAR)
08:48PM -31.6190 152.3210 15° North 459 528 36,600 360 Descending FlightAware
08:49PM -31.5450 152.3440 15° North 456 525 37,000 480 Climbing FlightAware
08:49PM -31.4754 152.3654 15° North 456 525 37,200  Climbing Aus ATC (RADAR)
08:49PM -31.4750 152.3660 15° North 464 534 37,000  Descending FlightAware
08:50PM -31.3943 152.3903 15° North 467 537 37,200  Climbing Aus ATC (RADAR)
08:50PM -31.4010 152.3880 15° North 471 542 37,000 -420 Descending FlightAware
08:51PM -31.3310 152.4100 15° North 470 541 37,000  Level FlightAware
08:51PM -31.2540 152.4340 15° North 470 541 37,000  Level FlightAware
08:52PM -31.1800 152.4570 15° North 471 542 37,000  Level FlightAware
08:52PM -31.1020 152.4810 15° North 470 541 37,000  Level FlightAware
08:53PM -31.0450 152.4980 14° North 470 541 37,000  Level FlightAware
08:54PM -30.9470 152.5270 14° North 471 542 37,000  Level FlightAware
08:54PM -30.8770 152.5490 15° North 471 542 37,000  Level FlightAware
08:55PM -30.8120 152.5680 14° North 471 542 37,000  Level FlightAware
08:55PM -30.7470 152.5870 14° North 471 542 37,000  Level FlightAware
08:56PM -30.6830 152.6050 14° North 471 542 37,000  Level FlightAware
08:57PM -30.6180 152.6240 14° North 471 542 37,000  Level FlightAware
08:57PM -30.4880 152.6870 23° Northeast 468 539 37,000  Level FlightAware
08:58PM -30.4210 152.7100 16° North 469 540 37,000  Level FlightAware
08:58PM -30.3470 152.7370 16° North 470 541 37,000 300 Level FlightAware
08:58PM -30.3373 152.7414 16° North 469 540 37,200 300 Climbing Aus ATC (RADAR)
08:59PM -30.2643 152.7675 16° North 471 542 37,200 -300 Level Aus ATC (RADAR)
08:59PM -30.2520 152.7710 16° North 471 542 37,000 -300 Descending FlightAware
09:00PM -30.1820 152.7970 18° North 472 543 37,000  Level FlightAware
09:00PM -30.1160 152.8200 17° North 473 544 37,000  Level FlightAware
09:01PM -30.0330 152.8500 17° North 470 541 37,000 180 Level FlightAware
09:01PM -29.9727 152.8724 17° North 469 540 37,200  Climbing Aus ATC (RADAR)
09:01PM -29.9700 152.8730 17° North 471 542 37,000 -300 Descending FlightAware
09:02PM -29.8870 152.9020 17° North 473 544 37,000  Level FlightAware
09:03PM -29.8140 152.9280 17° North 473 544 37,000 120 Level FlightAware
09:03PM -29.7392 152.9547 17° North 468 539 37,200  Climbing Aus ATC (RADAR)
09:03PM -29.7410 152.9540 17° North 475 547 37,000  Descending FlightAware
09:04PM -29.6585 152.9840 17° North 475 547 37,200  Climbing Aus ATC (RADAR)
09:04PM -29.6570 152.9840 17° North 476 548 37,000 -360 Descending FlightAware
09:04PM -29.5820 153.0110 17° North 474 545 37,000  Level FlightAware
09:05PM -29.5090 153.0360 17° North 474 545 37,000  Level FlightAware
09:06PM -29.4240 153.0670 18° North 476 548 37,000  Level FlightAware
09:06PM -29.3640 153.0880 17° North 476 548 37,000  Level FlightAware
09:07PM -29.2880 153.1150 17° North 478 550 37,000  Level FlightAware
09:07PM -29.1994 153.1458 17° North 469 540 37,000  Level FlightAware ADS-B (NZNE)
09:08PM -29.1177 153.1746 17° North 470 541 37,000  Level FlightAware ADS-B (NZNE)
09:09PM -29.0538 153.1970 17° North 471 542 37,000  Level FlightAware ADS-B (NZNE)
09:09PM -28.9898 153.2194 17° North 472 543 37,000 120 Level FlightAware ADS-B (NZNE)
09:10PM -28.8970 153.2515 17° North 473 544 37,200  Climbing Aus ATC (RADAR)
09:10PM -28.8880 153.2550 17° North 479 551 37,000 -300 Descending FlightAware
09:10PM -28.8110 153.2820 17° North 479 551 37,000  Level FlightAware
09:11PM -28.7900 153.2890 16° North 479 551 37,000 180 Level FlightAware
09:12PM -28.6745 153.3297 16° North 471 542 37,200  Climbing Aus ATC (RADAR)
09:12PM -28.6720 153.3300 16° North 478 550 37,000 -300 Descending FlightAware
09:12PM -28.6020 153.3550 17° North 477 549 37,000  Level FlightAware
09:13PM -28.5310 153.3800 17° North 477 549 37,000  Level FlightAware
09:13PM -28.4386 153.4115 17° North 470 541 37,000  Level FlightAware ADS-B (NZNE)
09:14PM -28.3830 153.4300 16° North 478 550 37,000  Level FlightAware
09:15PM -28.2990 153.4600 17° North 479 551 37,000  Level FlightAware
09:15PM -28.2300 153.4830 16° North 479 551 37,000  Level FlightAware
09:16PM -28.1450 153.5030 12° North 469 540 37,000  Level FlightAware
09:16PM -28.1090 153.5040 North 462 532 37,000  Level FlightAware
09:16PM -28.0420 153.5035 360° North 463 533 37,000  Level FlightAware ADS-B (NZNE)
09:17PM -27.9250 153.5020 359° North 465 535 37,000 120 Level FlightAware
09:18PM -27.8545 153.5009 359° North 464 534 37,200  Climbing Aus ATC (RADAR)
09:18PM -27.8500 153.5010 359° North 465 535 37,000 -360 Descending FlightAware
09:19PM -27.7810 153.5000 359° North 464 534 37,000  Level FlightAware
09:19PM -27.7616 153.5001 360° North 465 535 37,000 60 Level FlightAware ADS-B (NZNE)
09:20PM -27.6421 153.4997 360° North 460 529 37,100  Climbing Aus ATC (RADAR)
09:20PM -27.6323 153.4988 360° North 464 534 37,000 -180 Descending FlightAware ADS-B (NZNE)
09:20PM -27.5620 153.4981 360° North 464 534 37,000  Level FlightAware ADS-B (NZNE)
09:21PM -27.4928 153.4974 359° North 464 534 37,000  Level FlightAware ADS-B (NZNE)
09:21PM -27.4277 153.4968 359° North 465 535 37,000  Level FlightAware ADS-B (NZNE)
09:22PM -27.3271 153.4958 360° North 464 534 37,000  Level FlightAware ADS-B (NZNE)
09:23PM -27.2491 153.4951 360° North 464 534 37,000 -600 Level FlightAware ADS-B (NZNE)
09:23PM -27.1766 153.4919 360° North 461 531 36,300 -1,920 Descending Aus ATC (RADAR)
09:23PM -27.1420 153.4940 360° North 464 534 35,400 -2,760 Descending FlightAware
09:24PM -27.0670 153.4930 359° North 457 526 34,000 -2,520 Descending FlightAware
09:24PM -27.0225 153.4930 360° North 464 534 33,100 -2,280 Descending FlightAware ADS-B (NZNE)
09:25PM -26.9538 153.4911 360° North 451 519 32,000 -2,400 Descending Aus ATC (RADAR)
09:25PM -26.9485 153.4922 360° North 453 521 31,700 -2,760 Descending FlightAware ADS-B (NZNE)
09:26PM -26.8730 153.4915 360° North 452 520 30,300 -2,400 Descending FlightAware ADS-B (NZNE)
09:26PM -26.7867 153.4898 360° North 441 507 28,600 -2,280 Descending Aus ATC (RADAR)
09:26PM -26.7750 153.4910 360° North 434 499 28,400 -2,280 Descending FlightAware
09:27PM -26.7150 153.4820 352° North 416 479 27,200 -2,220 Descending FlightAware
09:27PM -26.6520 153.4610 343° North 401 461 26,000 -1,980 Descending FlightAware
09:28PM -26.5951 153.4417 343° North 400 460 25,000 -2,280 Descending Aus ATC (RADAR)
09:28PM -26.5900 153.4400 343° North 395 455 24,700 -2,460 Descending FlightAware
09:29PM -26.5190 153.4150 343° North 394 453 23,300 -2,100 Descending FlightAware
09:29PM -26.4590 153.3940 343° North 383 441 22,100 -2,100 Descending FlightAware
09:30PM -26.4000 153.3730 342° North 384 442 20,900 -2,040 Descending FlightAware
09:30PM -26.3631 153.3605 343° North 376 433 20,200 -1,860 Descending FlightAware ADS-B (NZNE)
09:31PM -26.3131 153.3440 343° North 381 438 19,300 -2,040 Descending Aus ATC (RADAR)
09:31PM -26.2974 153.3377 343° North 368 423 18,900 -2,160 Descending FlightAware ADS-B (NZNE)
09:32PM -26.2240 153.3120 343° North 371 427 17,400 -1,980 Descending FlightAware
09:32PM -26.1610 153.2900 343° North 359 413 16,100 -1,920 Descending FlightAware
09:33PM -26.0960 153.2680 343° North 356 410 14,900 -1,920 Descending FlightAware
09:34PM -26.0420 153.2490 342° North 345 397 13,800 -1,800 Descending FlightAware
09:34PM -26.0030 153.2360 343° North 337 388 13,000 -1,800 Descending FlightAware
09:35PM -25.9310 153.2110 343° North 322 371 11,600 -1,800 Descending FlightAware
09:35PM -25.8870 153.1962 343° North 320 368 10,700 -360 Descending Aus ATC (RADAR)
09:35PM -25.8910 153.1970 343° North 320 368 11,400 -1,860 Climbing FlightAware
09:36PM -25.8410 153.1800 343° North 313 360 9,700 -2,760 Descending FlightAware
09:36PM -25.8120 153.1700 343° North 310 357 9,100 -1,680 Descending FlightAware
09:37PM -25.7860 153.1610 343° North 306 352 8,600 -1,680 Descending FlightAware
09:37PM -25.7580 153.1500 341° North 301 346 8,000 -780 Descending FlightAware
09:37PM -25.7250 153.1310 333° Northwest 300 345 7,900 -1,560 Descending FlightAware
09:38PM -25.6860 153.1060 330° Northwest 291 335 6,400 -1,620 Descending FlightAware
09:38PM -25.6580 153.0880 330° Northwest 291 335 6,400 -1,320 Level FlightAware
09:39PM -25.5775 153.0371 330° Northwest 270 311 4,400 -1,860 Descending Aus ATC (RADAR)
09:43PM -25.3188 152.8803 360° North -1,200 Descending Aus ATC (Calculated)
09:43PM -25.3188 152.8803 360° North  Level Aus ATC (Calculated)
09:43PM -25.3188 152.8803 360° North  Level Aus ATC (Calculated)